User: anonymous   Login
Location: Campillo
(40.8621°N, 4.2488°W)
Time: 05:42:56
(UTC+00:00)
Language:

Cosmos 1821 Rocket - Orbit

View from above orbital plane
View from above orbital plane
View from above satellite
View from above satellite

Ground track
Ground track

The orbit data is extracted from the following two-line orbital elements,

1 17526U 87017B   21210.51352588 -.00000034  00000-0 -49718-4 0  9999
2 17526  82.9027 356.6793 0041636  74.7488 285.8266 13.76901034713213
Epoch (UTC): 29 July 2021 12:19:28
Eccentricity: 0.0041636
inclination: 82.9027°
perigee height: 944 km
apogee height: 1005 km
right ascension of ascending node: 356.6793°
argument of perigee: 74.7488°
revolutions per day: 13.76901034
mean anomaly at epoch: 285.8266°
orbit number at epoch: 71321

The dashed part of the orbit path shows where the satellite is in the earth's shadow,  

DLR